[[{"header":{"parameterUnit":"m.s-1","parameterCategory":1,"la1":30.2991,"la2":30.254,"lo1":-89.0895,"lo2":-89.0444,"dy":0.0017,"dx":0.0017,"nx":28,"ny":28,"refTime":"2023-11-03T09:00:00:Z","depth":0,"parameterNumber":2,"parameterNumberName":"U-component_of_WINDS"},"data":[0,0,0,0,0,0,0,0,0,0,0,0,0,0,0,0,0,0,0,0,0,0,0,0,0,0,0,0,0,0,0,0,0,0,0,0,0,0,0,0,0,0,0,0,0,0,0,0,0,0,0,0,0,0,0,0,0,0,-1.3459,-1.3459,0,-1.3467,-1.3467,-1.3467,-1.3389,-1.3387,-1.3385,-1.3383,-1.3394,-1.3396,-1.3398,0,0,0,0,0,0,0,0,0,0,0,0,0,-1.3377,-1.3379,-1.3459,-1.3459,-1.3459,-1.3467,-1.3467,-1.3467,-1.339,-1.3387,-1.3384,-1.3382,-1.3393,-1.3396,-1.3399,0,0,0,0,0,0,0,0,0,0,0,0,0,-1.3402,-1.338,-1.3459,-1.3421,-1.3418,-1.3467,-1.3467,-1.3467,-1.339,-1.3387,-1.3384,-1.3381,-1.3392,-1.3396,-1.3399,-1.3486,0,0,-1.341,-1.3411,0,0,0,0,0,0,0,0,-1.3401,-1.3405,-1.3427,-1.3424,-1.342,-1.3424,-1.3442,-1.3474,-1.3391,-1.3401,-1.3383,-1.3379,-1.3407,-1.3409,-1.3418,-1.3486,-1.3487,-1.341,-1.3412,-1.3414,-1.3415,0,0,0,0,0,0,0,-1.3399,-1.3404,-1.3462,-1.3427,-1.3423,-1.3404,-1.3404,-1.3448,-1.3422,-1.34,-1.3394,-1.3396,-1.3404,-1.3414,-1.3417,-1.3487,-1.341,-1.3413,-1.3415,-1.3416,-1.3626,-1.3629,0,0,0,0,0,0,-1.3402,-1.3403,-1.3462,-1.3463,-1.3402,-1.3408,-1.3408,-1.3426,-1.3421,-1.3417,-1.3399,-1.3392,-1.341,-1.3413,-1.3417,-1.3518,-1.3414,-1.3417,-1.3419,-1.3622,-1.3626,-1.363,0,0,0,0,0,0,-1.3401,-1.3408,-1.3462,-1.3431,-1.3437,-1.3413,-1.3434,-1.3428,-1.3438,-1.342,-1.3416,-1.3414,-1.3408,-1.3412,-1.3469,-1.3518,-1.3418,-1.3422,-1.3618,-1.3623,-1.3628,-1.3722,0,0,0,0,0,0,-1.3399,-1.3408,-1.3441,-1.3433,-1.3439,-1.3513,-1.3437,-1.343,-1.3444,-1.3435,-1.3433,-1.343,-1.3405,-1.3464,-1.3472,-1.3521,-1.3424,-1.3614,-1.362,-1.3627,-1.3714,-1.3729,-1.3742,0,0,0,0,0,-1.3396,-1.3468,-1.3443,-1.3451,-1.3479,-1.3516,-1.352,-1.349,-1.3448,-1.3481,-1.3469,-1.343,-1.351,-1.347,-1.3479,-1.3529,-1.361,-1.3618,-1.3626,-1.3708,-1.3726,-1.3742,0,0,0,0,0,0,-1.3484,-1.3466,-1.3439,-1.3509,-1.3515,-1.3503,-1.3544,-1.351,-1.3528,-1.352,-1.3482,-1.3482,-1.3545,-1.3542,-1.3498,-1.3612,-1.3553,-1.3563,-1.3612,-1.363,-1.3644,-1.3644,-1.3427,0,0,0,0,0,-1.3511,-1.3542,-1.3525,-1.3589,-1.3593,-1.3568,-1.3583,-1.3559,-1.3564,-1.3566,-1.3558,-1.3565,-1.3591,-1.361,-1.3633,-1.3712,-1.3711,-1.3751,-1.3765,-1.3776,-1.3786,-1.3828,-1.3845,-1.3656,-1.3656,-1.3656,0,0,-1.3569,-1.3563,-1.3585,-1.3607,-1.3608,-1.3642,-1.3571,-1.361,-1.3634,-1.3572,-1.3625,-1.3619,-1.3624,-1.3692,-1.3721,-1.3691,-1.3838,-1.3786,-1.3796,-1.3799,-1.3838,-1.3856,-1.3872,-1.3661,-1.366,-1.3659,0,0,-1.3691,-1.3689,-1.3743,-1.3745,-1.3747,-1.3729,-1.3742,-1.3734,-1.3728,-1.378,-1.3733,-1.3762,-1.3809,-1.3814,-1.3822,-1.3943,-1.3908,-1.3952,-1.4027,-1.4068,-1.4083,-1.4096,-1.414,-1.4156,-1.3961,-1.3961,-1.3961,0,-1.3764,-1.3812,-1.3775,-1.3816,-1.3827,-1.3769,-1.3823,-1.3827,-1.3838,-1.3847,-1.3812,-1.3869,-1.3868,-1.3936,-1.3965,-1.3973,-1.3987,-1.3953,-1.4083,-1.4096,-1.4108,-1.415,-1.4166,-1.3967,-1.3966,-1.3966,-1.3965,0,-1.39,-1.3934,-1.3977,-1.3987,-1.4002,-1.4049,-1.402,-1.404,-1.4013,-1.3999,-1.4052,-1.4048,-1.407,-1.4083,-1.4058,-1.4148,-1.4129,-1.409,-1.403,-1.4132,-1.4171,-1.4186,-1.3974,-1.3973,-1.3971,-1.397,0,0,-1.4083,-1.4068,-1.4085,-1.4088,-1.4085,-1.4111,-1.4155,-1.4174,-1.4192,-1.42,-1.4237,-1.4276,-1.4239,-1.4249,-1.4223,-1.4259,-1.4356,-1.4215,-1.4214,-1.4243,-1.4455,-1.4487,-1.4506,-1.4331,-1.4334,-1.4336,-1.4455,0,-1.4203,-1.4278,-1.4244,-1.4323,-1.4353,-1.4297,-1.4336,-1.4338,-1.4325,-1.435,-1.4335,-1.4364,-1.4312,-1.4318,-1.435,-1.4337,-1.4398,-1.4328,-1.4366,-1.4368,-1.437,-1.4526,-1.456,-1.4673,-1.447,-1.4472,-1.4474,0,-1.4355,-1.4367,-1.4449,-1.4438,-1.4449,-1.4485,-1.4499,-1.4523,-1.4524,-1.4512,-1.4521,-1.4487,-1.453,-1.4468,-1.4527,-1.448,-1.4493,-1.4489,-1.4492,-1.4497,-1.443,-1.4537,-1.4708,-1.4726,-1.4497,-1.4495,-1.4494,0,-1.4481,-1.4518,-1.4571,-1.4576,-1.4564,-1.459,-1.4587,-1.4584,-1.4598,-1.461,-1.4618,-1.4636,-1.4646,-1.4661,-1.4632,-1.459,-1.4695,-1.4631,-1.4688,-1.4689,-1.4715,-1.4715,-1.4893,-1.472,-1.4719,-1.4719,-1.4719,0,-1.4621,-1.4674,-1.4628,-1.4661,-1.4718,-1.4678,-1.4735,-1.4726,-1.4723,-1.4754,-1.4705,-1.4735,-1.4694,-1.472,-1.4698,-1.475,-1.4755,-1.4747,-1.4741,-1.4753,-1.4755,-1.4764,-1.4756,-1.4724,-1.4723,-1.4722,-1.4721,0,-1.4774,-1.4746,-1.48,-1.4783,-1.478,-1.4823,-1.4809,-1.4839,-1.4821,-1.486,-1.4867,-1.484,-1.4867,-1.4839,-1.4865,-1.485,-1.4921,-1.4902,-1.4921,-1.4917,-1.4976,-1.4971,-1.5168,-1.5193,-1.5002,-1.5003,-1.5005,0,-1.4867,-1.4906,-1.4892,-1.4908,-1.4907,-1.4934,-1.4947,-1.4908,-1.4923,-1.4925,-1.4955,-1.4978,-1.4995,-1.5042,-1.5025,-1.5044,-1.5027,-1.5094,-1.503,-1.5041,-1.503,-1.503,-1.5034,-1.5109,-1.5111,-1.5113,-1.5115,0,-1.5035,-1.5018,-1.5038,-1.5052,-1.5068,-1.5077,-1.5083,-1.51,-1.5059,-1.5078,-1.5105,-1.5118,-1.5143,-1.5167,-1.5181,-1.5177,-1.5141,-1.5134,-1.5149,-1.5163,-1.5173,-1.517,-1.4959,-1.5131,-1.5129,-1.5128,-1.5127,-1.5127,-1.5162,-1.5194,-1.5189,-1.5212,-1.5211,-1.5217,-1.5244,-1.5228,-1.525,-1.5267,-1.5242,-1.5275,-1.5273,-1.5287,-1.5288,-1.5314,-1.5286,-1.5307,-1.5312,-1.5319,-1.5328,-1.5166,-1.5316,-1.5316,-1.5315,-1.5315,-1.5314,0,-1.533,-1.5322,-1.5343,-1.5352,-1.537,-1.533,-1.5334,-1.5352,-1.5381,-1.5382,-1.5398,-1.5429,-1.5451,-1.5434,-1.5453,-1.5477,-1.546,-1.5483,-1.5482,-1.5483,-1.5352,-1.5338,-1.5496,-1.5496,-1.5496,-1.5496,-1.5496,-1.5496,-1.5419,-1.547,-1.5452,-1.5502,-1.5494,-1.5526,-1.5532,-1.5537,-1.5537,-1.5572,-1.559,-1.5578,-1.5571,-1.5588,-1.5607,-1.5601,-1.5612,-1.5642,-1.563,-1.5509,-1.5492,-1.5475,-1.5462,-1.5643,-1.5644,-1.5759,-1.576,-1.5761]},{"header":{"parameterUnit":"m.s-1","parameterCategory":1,"la1":30.2991,"la2":30.254,"lo1":-89.0895,"lo2":-89.0444,"dy":0.0017,"dx":0.0017,"nx":28,"ny":28,"refTime":"2023-11-03T09:00:00:Z","depth":0,"parameterNumber":3,"parameterNumberName":"V-component_of_WINDS"},"data":[0,0,0,0,0,0,0,0,0,0,0,0,0,0,0,0,0,0,0,0,0,0,0,0,0,0,0,0,0,0,0,0,0,0,0,0,0,0,0,0,0,0,0,0,0,0,0,0,0,0,0,0,0,0,0,0,0,0,-3.2275,-3.2276,0,-3.2395,-3.2396,-3.2398,-3.2412,-3.2411,-3.241,-3.2409,-3.2527,-3.2531,-3.2535,0,0,0,0,0,0,0,0,0,0,0,0,0,-3.2054,-3.2058,-3.2275,-3.2276,-3.2278,-3.2395,-3.2396,-3.2398,-3.2412,-3.2411,-3.2409,-3.2408,-3.2526,-3.2531,-3.2536,0,0,0,0,0,0,0,0,0,0,0,0,0,-3.216,-3.2059,-3.2275,-3.2299,-3.2303,-3.2394,-3.2396,-3.2398,-3.2413,-3.2411,-3.2409,-3.2407,-3.2524,-3.253,-3.2536,-3.2611,0,0,-3.2556,-3.2559,0,0,0,0,0,0,0,0,-3.2154,-3.2168,-3.2294,-3.2298,-3.2302,-3.2387,-3.2362,-3.2469,-3.2413,-3.2371,-3.2409,-3.2407,-3.2482,-3.2491,-3.2517,-3.2616,-3.2621,-3.2556,-3.256,-3.2563,-3.2565,0,0,0,0,0,0,0,-3.2146,-3.2162,-3.2322,-3.2296,-3.2301,-3.2303,-3.2316,-3.2382,-3.2434,-3.2374,-3.2376,-3.239,-3.2483,-3.2511,-3.252,-3.2623,-3.2556,-3.2562,-3.2566,-3.2568,-3.2787,-3.2789,0,0,0,0,0,0,-3.2135,-3.2156,-3.2318,-3.2326,-3.2222,-3.2308,-3.2323,-3.2361,-3.2434,-3.2443,-3.2391,-3.239,-3.2501,-3.2513,-3.2525,-3.2615,-3.2563,-3.2569,-3.2573,-3.2785,-3.2788,-3.279,0,0,0,0,0,0,-3.213,-3.2149,-3.2314,-3.2242,-3.2263,-3.2314,-3.2357,-3.2364,-3.2393,-3.2447,-3.2455,-3.2411,-3.25,-3.2516,-3.2589,-3.2619,-3.2572,-3.2578,-3.2783,-3.2786,-3.2789,-3.2797,0,0,0,0,0,0,-3.2124,-3.2148,-3.2177,-3.2242,-3.2267,-3.2377,-3.2359,-3.2368,-3.2404,-3.2404,-3.2467,-3.2476,-3.25,-3.258,-3.2595,-3.2627,-3.2583,-3.278,-3.2784,-3.2788,-3.2794,-3.28,-3.2805,0,0,0,0,0,-3.2116,-3.2174,-3.2179,-3.2198,-3.2305,-3.2379,-3.2393,-3.2421,-3.2406,-3.2436,-3.247,-3.2474,-3.2614,-3.2587,-3.2605,-3.2639,-3.2778,-3.2783,-3.2787,-3.2792,-3.2799,-3.2805,0,0,0,0,0,0,-3.211,-3.2183,-3.2189,-3.227,-3.2319,-3.2382,-3.242,-3.2428,-3.248,-3.2477,-3.2509,-3.2523,-3.2595,-3.2625,-3.2593,-3.2714,-3.2695,-3.2703,-3.2692,-3.2699,-3.2704,-3.2695,-3.2588,0,0,0,0,0,-3.2118,-3.2174,-3.2234,-3.23,-3.2324,-3.2368,-3.2401,-3.2419,-3.2469,-3.249,-3.253,-3.2577,-3.2632,-3.2667,-3.2721,-3.2799,-3.2812,-3.2832,-3.2837,-3.2841,-3.2847,-3.2889,-3.2898,-3.2805,-3.2805,-3.2804,0,0,-3.2135,-3.2182,-3.2215,-3.23,-3.234,-3.2395,-3.2385,-3.2444,-3.2485,-3.2498,-3.257,-3.2601,-3.2657,-3.2733,-3.2768,-3.2759,-3.2876,-3.2847,-3.285,-3.2854,-3.2895,-3.2904,-3.2912,-3.2808,-3.2807,-3.2807,0,0,-3.2195,-3.2237,-3.2296,-3.2336,-3.2397,-3.2425,-3.2439,-3.2501,-3.2523,-3.2596,-3.2607,-3.2655,-3.2749,-3.2788,-3.282,-3.2895,-3.2899,-3.2911,-3.2938,-3.2979,-3.2986,-3.2993,-3.3018,-3.3027,-3.2918,-3.2918,-3.2918,0,-3.2208,-3.2294,-3.2325,-3.2384,-3.242,-3.2436,-3.2495,-3.2532,-3.2606,-3.263,-3.262,-3.2738,-3.2777,-3.2862,-3.288,-3.2906,-3.2922,-3.2903,-3.2983,-3.299,-3.2997,-3.3021,-3.303,-3.2919,-3.2919,-3.2918,-3.2918,0,-3.2306,-3.2365,-3.2405,-3.2478,-3.2519,-3.2577,-3.2616,-3.2653,-3.2668,-3.2697,-3.277,-3.2817,-3.288,-3.2902,-3.2916,-3.2988,-3.2981,-3.2977,-3.2958,-3.3006,-3.3029,-3.3039,-3.292,-3.292,-3.2919,-3.2919,0,0,-3.2364,-3.2454,-3.2468,-3.2501,-3.2569,-3.2614,-3.2673,-3.2736,-3.2766,-3.2817,-3.2866,-3.2946,-3.2942,-3.2978,-3.2997,-3.3033,-3.3087,-3.3024,-3.3026,-3.3033,-3.3168,-3.317,-3.318,-3.3092,-3.3093,-3.3095,-3.3163,0,-3.243,-3.2537,-3.2567,-3.2656,-3.271,-3.2726,-3.2777,-3.2824,-3.2853,-3.2902,-3.2933,-3.2988,-3.298,-3.3002,-3.3039,-3.3073,-3.3115,-3.3069,-3.3135,-3.3137,-3.3119,-3.3193,-3.3195,-3.3256,-3.3172,-3.3174,-3.3175,0,-3.2521,-3.2575,-3.267,-3.2731,-3.2755,-3.28,-3.286,-3.2907,-3.2959,-3.2978,-3.3019,-3.3034,-3.3094,-3.3073,-3.3156,-3.3124,-3.3153,-3.3174,-3.3177,-3.3183,-3.3158,-3.3198,-3.3277,-3.3286,-3.319,-3.3189,-3.3188,0,-3.2552,-3.2648,-3.2717,-3.2745,-3.2818,-3.2849,-3.2881,-3.2932,-3.2968,-3.3019,-3.3042,-3.31,-3.3131,-3.3175,-3.3205,-3.3187,-3.3285,-3.3266,-3.33,-3.3299,-3.3318,-3.3316,-3.3401,-3.334,-3.334,-3.334,-3.3339,0,-3.2622,-3.2679,-3.2732,-3.2774,-3.2838,-3.2871,-3.2933,-3.2965,-3.3011,-3.3058,-3.3076,-3.312,-3.3158,-3.3207,-3.3231,-3.3295,-3.3309,-3.3324,-3.3329,-3.3322,-3.332,-3.334,-3.3336,-3.3342,-3.3342,-3.3341,-3.3341,0,-3.2666,-3.2704,-3.278,-3.2843,-3.2861,-3.2905,-3.2958,-3.2999,-3.3029,-3.3089,-3.3105,-3.3151,-3.321,-3.3245,-3.3318,-3.3334,-3.3404,-3.3409,-3.3387,-3.3389,-3.342,-3.3416,-3.3519,-3.3533,-3.3464,-3.3465,-3.3466,0,-3.2707,-3.2751,-3.282,-3.2853,-3.2886,-3.294,-3.2977,-3.3011,-3.3048,-3.3112,-3.3145,-3.3204,-3.3254,-3.3346,-3.3385,-3.3441,-3.3446,-3.3479,-3.3454,-3.3445,-3.3445,-3.3441,-3.3445,-3.3482,-3.3482,-3.3483,-3.3483,0,-3.2775,-3.2792,-3.2845,-3.2905,-3.2948,-3.2997,-3.3044,-3.3071,-3.3113,-3.3154,-3.3214,-3.3253,-3.3328,-3.3387,-3.3446,-3.3477,-3.3487,-3.3491,-3.3501,-3.3493,-3.3478,-3.3485,-3.3396,-3.3488,-3.3487,-3.3487,-3.3487,-3.3487,-3.2818,-3.2858,-3.2912,-3.297,-3.301,-3.3055,-3.3096,-3.3132,-3.3183,-3.3248,-3.3265,-3.3328,-3.3379,-3.346,-3.3493,-3.3541,-3.3536,-3.3551,-3.3555,-3.3558,-3.3558,-3.3472,-3.3552,-3.3552,-3.3552,-3.3552,-3.3552,0,-3.2886,-3.2922,-3.2975,-3.3042,-3.3087,-3.3095,-3.3148,-3.3185,-3.3241,-3.3288,-3.3337,-3.3405,-3.3462,-3.3507,-3.3565,-3.3595,-3.3601,-3.3609,-3.3606,-3.3613,-3.356,-3.3545,-3.3603,-3.3603,-3.3603,-3.3603,-3.3603,-3.3603,-3.2926,-3.2993,-3.3017,-3.3104,-3.3139,-3.3202,-3.3231,-3.3272,-3.331,-3.3386,-3.3434,-3.3463,-3.3509,-3.3571,-3.3623,-3.3634,-3.3654,-3.3661,-3.3673,-3.3622,-3.3617,-3.3611,-3.3597,-3.3665,-3.3666,-3.3721,-3.3722,-3.3722]}]]